Regional Weather Roundup
Issued by NWS Grand Forks, ND

Home | Current Version | Previous Version | Text Only | Print | Product List | Glossary On
Versions: 1 2 3 4 5 6 7 8 9 10 11 12 13 14 15 16 17 18 19 20 21 22 23 24 25 26 27 28 29 30 31 32 33 34 35 36 37 38 39 40 41 42 43 44 45 46 47 48 49 50
000
ASUS43 KFGF 201531
RWRFGF
PRAIRIE TO PINES  WEATHER ROUNDUP
NATIONAL WEATHER SERVICE EASTERN NORTH DAKOTA/GRAND FORKS ND
900 AM CST SAT DEC 20 2014

 **SATELLITE DATA USED TO AUGMENT SKY COVER AT AUTOMATED STATIONS**
 *****  WEATHER ACROSS EASTERN NORTH DAKOTA  *****

CITY           SKY/WX    TMP DP  RH WIND       PRES   REMARKS
GRAND FORKS    CLOUDY    26  25  96 SW9       30.01R FOG     WCI  17
GRAND FRKS AFB CLOUDY    26  26 100 SW10      30.00S WCI  16
GRAND FRKS NWS   N/A     27 N/A N/A SW7         N/A  WCI  19
DEVILS LAKE    CLOUDY    21  16  79 S5        29.93S VSB 1/4 WCI  15
FARGO          CLOUDY    30  27  88 S12       30.03S WCI  20
WAHPETON ARPT  CLOUDY    30  28  93 S12       30.04S WCI  21
$$

 ***** WEATHER ACROSS CENTRAL AND WESTERN NORTH DAKOTA  *****

CITY           SKY/WX    TMP DP  RH WIND       PRES   REMARKS
BISMARCK       CLOUDY    14  12  92 E6        29.92S WCI   5
MINOT          FOG       22  20  92 SE7       29.88S VSB<1/4 WCI  13
JAMESTOWN      FOG       22  18  85 S7        29.96R VSB 1/4 WCI  13
MINOT AFB      FRZ DRZL  23  23 100 SE6       29.88S VSB<1/4 WCI  16
GARRISON         N/A     19  16  88 SE5       29.88R WCI  12
WILLISTON      MOCLDY    22  19  89 SW5       29.83F WCI  16
DICKINSON      CLOUDY    33  26  75 SW6       29.82S
HETTINGER      CLOUDY    32  25  75 W5        29.86F
$$

 *****  OTHER AIRPORT OBSERVATIONS IN OUR AREA  *****

CITY           SKY/WX    TMP DP  RH WIND       PRES   REMARKS
WALHALLA         N/A     25  25 100 N3        29.99S FOG
GRAFTON AIRPOR NOT AVBL
VALLEY CITY AR FOG       25  25 100 S17G25    29.98S VSB<1/4 WCI  11
CANDO          FOG       21  19  93 S6        29.94S VSB<1/4 WCI  14
CAVALIER APRT  CLOUDY    27  27 100 CALM      29.99S FOG
GWINNER        CLOUDY    30  30 100 MISG      30.02S VSB 1/2
SHEYENNE NWR     N/A     27  26  95 S7        29.95S WCI  19
ROLLA          HVY SNOW  19  19 100 S9        29.90F VSB<1/4 WCI   9
 ***** THE ABOVE OBSERVATIONS ARE NON NWS ARE NOT QUALITY
       CONTROLLED AND MAY MIS-REPORT RAIN FOR SNOW...
$$

  *****  WEATHER ACROSS NORTHERN MINNESOTA  *****

CITY           SKY/WX    TMP DP  RH WIND       PRES   REMARKS
FLAG ISLAND    FOG       27  27 100 S10       30.01R VSB 1   WCI  17
WARROAD        CLOUDY    28  25  86 SE5       30.01S FOG     WCI  23
ROSEAU         CLOUDY    30  25  80 SW7       30.01R HAZE    WCI  23
HALLOCK        CLOUDY    28  27  93 CALM      30.00S FOG
THF RVR FALLS  CLOUDY    28  28 100 S12       30.01S WCI  18
BAUDETTE       CLOUDY    28  26  92 S6        30.01F FOG     WCI  22
WASKISH        CLOUDY    30  28  93 CALM      30.03S FOG
CROOKSTON      CLOUDY    28  28 100 SW8       30.02S FOG     WCI  20
STEPHEN NDAWN    N/A     28  27  93 SW8         N/A  WCI  20
GREENBUSH NDAW   N/A     28  27  93 S1          N/A
$$
  *****  WEATHER ACROSS CENTRAL AND WEST MINNESOTA  *****

CITY           SKY/WX    TMP DP  RH WIND       PRES   REMARKS
FOSSTON        CLOUDY    27  27 100 S8        30.02S FOG     WCI  18
BEMIDJI          N/A     29  28  96 S7        30.02S FOG     WCI  22
PARK RAPIDS    CLOUDY    29  27  92 S14       30.03R FOG     WCI  18
ELBOW LAKE     CLOUDY    29  28  96 S14       30.04S FOG     WCI  18
WADENA         CLOUDY    27  27 100 S10       30.04S FOG     WCI  17
DETROIT LAKES  CLOUDY    30  30 100 S9        30.03S FOG     WCI  22
MOORHEAD       CLOUDY    30  30 100 S5        30.04S FOG
FERGUS FALLS   CLOUDY    28  28 100 S10       30.07S FOG     WCI  19
MORRIS MN      PTCLDY    30  28  93 S13       30.04F FOG     WCI  20
STAPLES        CLOUDY    28  27  93 S7        30.05S FOG     WCI  21
$$
  *****  WEATHER ELSEWHERE ACROSS MINNESOTA  *****

CITY           SKY/WX    TMP DP  RH WIND       PRES   REMARKS
DULUTH         LGT SNOW  27  23  85 SE7       30.11S FOG     WCI  19
INTRNTL FALLS  CLOUDY    27  24  89 S5        30.04F FOG     WCI  22
ELY            LGT SNOW  27  25  93 S5        30.09R WCI  21
CLOQUET        CLOUDY    27  25  93 SE5       30.11S FOG     WCI  21
WHEATON        CLOUDY    28  27  93 S9        30.07R FOG     WCI  20
BRAINERD       CLOUDY    30  29  96 S13       30.07S FOG     WCI  20
HIBBING        CLOUDY    28  24  85 S8        30.08S FOG     WCI  20
ALEXANDRIA     CLOUDY    29  27  92 S14       30.06R FOG     WCI  18
SAINT CLOUD    CLOUDY    32  28  85 S8        30.10S FOG     WCI  25
MINNEAPOLIS    CLOUDY    30  26  85 SE7       30.15F FOG     WCI  23
$$

  *****  WEATHER ACROSS SOUTH DAKOTA  *****

CITY           SKY/WX    TMP DP  RH WIND       PRES   REMARKS
SIOUX FALLS    CLOUDY    32  29  88 S9        30.07R FOG     WCI  24
BROOKINGS      NOT AVBL
WATERTOWN      CLOUDY    28  26  92 S12       30.01S FOG     WCI  18
HURON          FOG       25  24  96 S9        30.03S VSB 1/2 WCI  15
SISSETON         N/A     29  27  92 SW10      30.02S WCI  20
ABERDEEN       FOG       26  25  96 S9        30.02R VSB 1/4 WCI  17
MITCHELL       FOG       27  27 100 S10       30.05S VSB 1/4 WCI  17
PIERRE         CLOUDY    23  18  81 E7        29.95S HAZE    WCI  15
MOBRIDGE       MOCLDY    23  20  88 SE10      29.89F WCI  12
RAPID CITY     CLOUDY    36  23  59 NW7       29.91R
$$

  *****  SOME WEATHER IN NEARBY STATES *****

CITY           SKY/WX    TMP DP  RH WIND       PRES   REMARKS
GLASGOW MT     PTCLDY    26  22  84 S5        29.82R WCI  20
GREAT FALLS MT PTCLDY    34  20  56 SW14      29.85F WCI  25
CHEYENNE WY    CLOUDY    36  18  48 W10       29.99R
SCOTTSBLUFF NE MOCLDY    19  14  81 CALM      29.98R
OMAHA NE       DRZL/FOG  33  32  96 S9        30.13S VSB 1
DES MOINES IA  CLOUDY    32  29  88 S3        30.18S FOG
DAVENPORT IA   CLOUDY    30  24  78 SE5       30.25R
CHICAGO IL     CLOUDY    30  23  75 SW3       30.27S
EAU CLAIRE WI  CLOUDY    28  22  78 S6        30.19S WCI  22
LA CROSSE WI   CLOUDY    31  24  75 S8        30.22S WCI  23
$$

  *****  SOME NATIONAL WEATHER *****

CITY           SKY/WX    TMP DP  RH WIND       PRES   REMARKS
LA GUARDIA NY  CLOUDY    31  20  63 N7        30.31R WCI  24
RALEIGH NC     LGTSLEET  34  28  80 NE5       30.31S FOG
ATLANTA GA     PTSUNNY   47  43  86 E5        30.20R
NEW ORLEANS LA CLOUDY    51  48  89 NE14      30.15R
OKLAHOMA CITY  CLOUDY    42  36  79 S5        30.21R
ALBUQUERQUE NM MOCLDY    29  23  78 CALM      30.18R
SALT LAKE CITY MOCLDY    38  33  82 S8        30.10S
LOS ANGELES CA CLOUDY    51  47  86 E5        30.17R
BOISE ID       LGT RAIN  40  36  86 SE6       30.03R
SEATTLE WA     LGT RAIN  45  41  86 NE5       29.66F
$$

*** WEATHER ACROSS MANITOBA...SASKATCHEWAN AND ONTARIO ***
                ***ONTARIO***

CITY           SKY/WX    TMP DP  RH WIND       PRES   REMARKS
GERALDTON      CLOUDY    14  10  85 CALM      30.18F
THUNDER BAY    FLURRIES  25  23  93 CALM      30.19S
SIOUX LOOKOUT  FLURRIES  23  21  93 S5        30.06  WCI  17
TORONTO        MOSUNNY   25  21  86 N7        30.31R WCI  17
BIG TROUT LK   CLOUDY    19  18  93 S7        30.11S WCI  10
PICKLE LAKE    FLURRIES  19  16  86 SE5       30.09S WCI  13
DRYDEN         CLOUDY    23  23 100 SE7       30.04S WCI  15
KENORA         FRZ DRZL  25  23  93 SE6       30.01S VSB 1/2 WCI  18
$$
                *** MANITOBA***

CITY           SKY/WX    TMP DP  RH WIND       PRES   REMARKS
BRANDON        CLOUDY    23  21  93 E3        29.93F FOG
DAUPHIN        CLOUDY    21  19  93 SE3       29.94F
ISLAND LAKE    FLURRIES  19  18  93 SE5       30.03F WCI  13
PILOT MOUND      N/A     23  21  93 S1          N/A
THE PAS        FRZ DRZL  19  18  93 SE13      29.92S FOG     WCI   7
THOMPSON       LGT SNOW  14  12  92 S6        29.98F WCI   5
WINNIPEG       FRZ DRZL  27  25  93 S5        30.01S FOG     WCI  21
LYNN LAKE      FLURRIES  12  10  92 S9        29.86F WCI   0
CHURCHILL      FLURRIES  10   9  92 S8        30.02S WCI  -1
GILLAM         LGT SNOW  14  12  92 S3        30.04S
$$
                ***SASKATCHEWAN***

CITY           SKY/WX    TMP DP  RH WIND       PRES   REMARKS
ESTEVAN          N/A    N/A N/A N/A E9          N/A  FOG
KINDERSLEY     PTCLDY    19  18  93 NW6       29.70S WCI  11
LLOYDMINSTER   MOCLDY    18  16  93 SW3       29.68
PRINCE ALBERT  LGT SNOW  18  16  93 E8        29.78  FOG     WCI   7
REGINA         LGTSLEET  19  19 100 SE15      29.76  WCI   5
YORKTON        CLOUDY    18  18 100 S15       29.85S FOG     WCI   3
N. BATTLEFORD  LGT SNOW  18  16  93 SE7       29.74S WCI   8
LA RONGE       CLOUDY    14  12  92 SE8       29.82S WCI   3
SASKATOON      LGT SNOW  18  18 100 E10       29.73F FOG     WCI   6
SWIFT CURRENT    N/A     32  28  86 W18G24    29.69R WCI  20
$$
NOTE: THESE ARE AUTOMATED STATIONS WITH LIMITED QUALITY CONTROL
      "FAIR" INDICATES FEW OR NO CLOUDS BELOW 12,000 FEET WITH NO
      SIGNIFICANT WEATHER AND/OR OBSTRUCTIONS TO VISIBILITY.
      SKY/WX - SKY CONDITION AND SIGNIFICANT WEATHER.
      TMP - AIR TEMPERATURE.    DP   - DEWPOINT TEMPERATURE.
      RH  - RELATIVE HUMIDITY.  PRES - PRESSURE.
      HX  - HEAT INDEX.         WCI  - WIND CHILL INDEX.
$


USA.gov is the U.S. government's official web portal to all federal, state and local government web resources and services.